Location: Unspecified
(43.1763°N, 79.4719°W)
Time: 04:37:22
(UTC-04:00)

CZ-3 Stage 3 - Visible Passes

Search period start: 21 October 2017 00:00
Search period end: 31 October 2017 00:00
Orbit: 420 x 34778 km, 31.0° (Epoch: 20 October)

Date Brightness Start Highest point End Pass type
(mag) Time Alt. Az. Time Alt. Az. Time Alt. Az.
23 Oct 4.5 06:18:24 14° SW 06:22:45 39° SSE 06:46:19 10° ESE visible
26 Oct 4.4 06:09:35 17° SW 06:13:29 38° SSE 06:36:25 10° ESE visible
29 Oct 4.3 06:00:45 21° SW 06:04:13 38° SSE 06:26:30 10° ESE visible
